Regional Weather Roundup
Issued by NWS

Home | Current Version | Previous Version | Text Only | Print | Product List | Glossary Off
Versions: 1 2 3 4 5 6 7 8 9 10 11 12 13 14 15 16 17 18 19 20 21 22 23 24 25 26 27 28 29 30 31 32 33 34 35 36 37 38 39 40 41 42 43 44 45 46 47 48 49 50

000
ASUS43 KTOP 271708
RWRKS

WEATHER ROUNDUP FOR KANSAS
NATIONAL WEATHER SERVICE GOODLAND KS
1200 PM CDT WED AUG 27 2014

NOTE:  "FAIR" INDICATES FEW OR NO CLOUDS BELOW 12,000 FEET WITH NO
SIGNIFICANT WEATHER AND/OR OBSTRUCTIONS TO VISIBILITY.

KSZ001>006-013>018-027>032-041>047-271800-
NORTHWEST KANSAS

CITY           SKY/WX    TMP DP  RH WIND       PRES   REMARKS
GOODLAND       CLOUDY    73  65  75 S18       30.13F
HAYS           CLOUDY    75  63  64 CALM      30.11S
HILL CITY      PTSUNNY   79  64  60 VRB6      30.12S
RUSSELL        CLOUDY    78  64  61 N3        30.10F
$$

KSZ061>065-074>080-084>089-271800-
SOUTHWEST KANSAS

CITY           SKY/WX    TMP DP  RH WIND       PRES   REMARKS
DODGE CITY     MOSUNNY   80  64  58 S13       30.11F
ELKHART          N/A     77  65  66 S16         N/A
GARDEN CITY    MOSUNNY   79  67  66 S15       30.12F
GREAT BEND     CLOUDY    75  64  69 SE12      30.12
LIBERAL        PTSUNNY   81  68  65 S17G23    30.14F
PRATT          CLOUDY    77  63  61 S12       30.12F
$$

KSZ066>073-081>083-090>101-271800-
SOUTHEAST KANSAS

CITY           SKY/WX    TMP DP  RH WIND       PRES   REMARKS
CHANUTE        SUNNY     92  67  43 VRB6      30.11F HX  95
COFFEYVILLE    SUNNY     90  70  51 VRB5      30.10F HX  95
HUTCHINSON     CLOUDY    82  64  54 SE3       30.12F
MEDICINE LODGE   N/A     79  67  66 SE7       30.11F
NEWTON         CLOUDY    84  63  48 CALM      30.16S
PARSONS        SUNNY     92  68  45 W6        30.12F HX  96
WICHITA INTL   PTSUNNY   86  64  47 S5        30.11F
WICHITA JABRA  PTSUNNY   85  65  51 VRB6      30.12F
WICHITA MCCONL PTSUNNY   87  64  46 VRB2      30.12F
WINFIELD       PTSUNNY   89  68  49 VRB5      30.12F
$$

KSZ007>012-019>026-033>040-048>060-102>105-271800-
NORTHEAST KANSAS

CITY           SKY/WX    TMP DP  RH WIND       PRES   REMARKS
CONCORDIA      CLOUDY    79  73  82 SE6       30.12S
EMPORIA        MOSUNNY   88  66  48 N6        30.11F
LAWRENCE       MOSUNNY   85  72  65 E7        30.12F
MANHATTAN      SUNNY     87  71  58 E8        30.10F
MARYSVILLE     PTSUNNY   79  72  78 SE7       30.13S
OLATHE IND     MOSUNNY   86  70  58 VRB6      30.13F
OLATHE EXE     MOSUNNY   84  72  67 E7        30.13S
SALINA         CLOUDY    84  65  52 CALM      30.11S
TOPEKA BILLARD MOSUNNY   84  72  67 E12       30.12F
TOPEKA FORBES  MOSUNNY   84  69  60 NE12      30.12S
$$



USA.gov is the U.S. government's official web portal to all federal, state and local government web resources and services.